Kivalina, AK

1:03 AM AKDT on May 29, 2017 (GMT -0800)
Kivalina

Weather History for PAVL - August, 2013

Change the Weather History Date:

Friday, August 30, 2013

  Actual Average (PAWN) Record (PAWN)
Temperature  
Mean Temperature 39 °F -  
Max Temperature 45 °F 52 °F 80 °F (2007)
Min Temperature 33 °F 37 °F 30 °F (2013)
Degree Days  
Heating Degree Days 26    
Moisture  
Dew Point 31 °F    
Average Humidity 75    
Maximum Humidity 93    
Minimum Humidity 51    
Precipitation  
Precipitation 0.08 in - - ()
Sea Level Pressure  
Sea Level Pressure 29.93 in    
Wind  
Wind Speed 16 mph (WNW)    
Max Wind Speed 25 mph    
Max Gust Speed 36 mph    
Visibility 7 miles    
Events Rain , Snow    
Averages and records for this station are not official NWS values.
T = Trace of Precipitation, MM = Missing Value Source: NWS Daily Summary

Daily Weather History Graph

Daily Weather History Graph

Search for Another Location

Airport or City:

Trip Planner

Search our weather history database for the weather conditions in past years. The results will help you decide how hot, cold, wet, or windy it might be!

Date:

Astronomy

Aug. 30, 2013 Rise Set
Actual Time 7:20 AM AKDT 10:34 PM AKDT
Civil Twilight 6:14 AM AKDT 11:39 PM AKDT
Nautical Twilight 4:22 AM AKDT 1:26 AM AKDT
Astronomical Twilight Sun does not set Sun does not set
Moon 12:16 AM AKDT (8/30) 8:39 PM AKDT (8/30)
Length of Visible Light 17h 24m
Length of Day
15h 14m
Waning Crescent, 28% of the Moon is Illuminated
Aug 30
Waning Crescent
Sep 5
New
Sep 12
First Quarter
Sep 19
Full
Sep 26
Last Quarter

Hourly Weather History & Observations

Time (AKDT) Temp. Windchill Dew Point Humidity Pressure Visibility Wind Dir Wind Speed Gust Speed Precip Events Conditions
12:39 AM 37.4 °F 27.8 °F 33.8 °F 87% 29.82 in 2.0 mi SW 17.3 mph 28.8 mph 0.04 in Rain Heavy Rain
12:51 AM 37.4 °F 27.8 °F 33.8 °F 87% 29.85 in 6.0 mi WSW 17.3 mph 23.0 mph 0.04 in Rain Light Rain
12:53 AM 37.9 °F 27.3 °F 34.0 °F 86% 29.85 in 6.0 mi WSW 21.9 mph 32.2 mph 0.04 in Rain Light Rain
1:26 AM 37.4 °F 26.1 °F 33.8 °F 87% 29.87 in 8.0 mi West 24.2 mph 28.8 mph 0.00 in   Overcast
1:37 AM 37.4 °F 28.2 °F 32.0 °F 81% 29.84 in 4.0 mi WSW 16.1 mph - 0.00 in Snow Light Snow
1:53 AM 37.0 °F 26.7 °F 33.1 °F 86% 29.85 in 5.0 mi WNW 19.6 mph - 0.01 in Rain Light Rain
2:19 AM 37.4 °F 29.3 °F 32.0 °F 81% 29.84 in 9.0 mi NNW 12.7 mph - 0.00 in   Overcast
2:38 AM 37.4 °F 28.9 °F 32.0 °F 81% 29.86 in 9.0 mi West 13.8 mph 19.6 mph 0.00 in   Overcast
2:50 AM 39.2 °F 29.3 °F 32.0 °F 75% 29.88 in 8.0 mi NW 20.7 mph 26.5 mph 0.00 in   Overcast
2:51 AM 39.2 °F 29.8 °F 32.0 °F 75% 29.88 in 8.0 mi NW 18.4 mph 26.5 mph 0.00 in   Overcast
2:53 AM 37.9 °F 28.2 °F 30.9 °F 76% 29.88 in 9.0 mi NW 18.4 mph 26.5 mph 0.00 in   Overcast
3:00 AM 37.4 °F 28.5 °F 30.2 °F 75% 29.87 in 9.0 mi WNW 15.0 mph - N/A   Mostly Cloudy
3:53 AM 37.9 °F 29.2 °F 30.0 °F 73% 29.87 in 8.0 mi West 15.0 mph - N/A   Scattered Clouds
4:53 AM 37.9 °F 26.6 °F 32.0 °F 79% 29.83 in 5.0 mi WSW 25.3 mph - 0.00 in Snow Light Snow
4:59 AM 35.6 °F 24.2 °F 32.0 °F 87% 29.87 in 2.0 mi WSW 21.9 mph - 0.01 in Snow Light Snow
5:06 AM 35.6 °F 26.6 °F 32.0 °F 87% 29.87 in 1.2 mi WSW 13.8 mph - 0.01 in Snow Light Snow
5:12 AM 35.6 °F 27.5 °F 33.8 °F 93% 29.88 in 3.0 mi WSW 11.5 mph - 0.01 in Snow Light Snow
5:23 AM 37.4 °F 28.5 °F 33.8 °F 87% 29.89 in 9.0 mi West 15.0 mph - 0.01 in   Mostly Cloudy
5:53 AM 36.0 °F 26.3 °F 30.9 °F 82% 29.88 in 7.0 mi NNW 16.1 mph 33.4 mph 0.01 in Snow Light Snow
6:00 AM 35.6 °F 27.1 °F 32.0 °F 87% 29.88 in 8.0 mi NNW 12.7 mph - 0.00 in Rain Light Rain
6:12 AM 35.6 °F 28.0 °F 32.0 °F 87% 29.88 in 4.0 mi North 10.4 mph - 0.01 in Snow Light Snow
6:53 AM 34.0 °F 27.2 °F 30.9 °F 89% 29.89 in 10.0 mi North 8.1 mph - 0.01 in   Mostly Cloudy
7:10 AM 33.8 °F 30.8 °F 32.0 °F 93% 29.89 in 10.0 mi NE 3.5 mph - N/A   Mostly Cloudy
7:50 AM 39.2 °F 28.3 °F 32.0 °F 75% 29.92 in 7.0 mi West 25.3 mph 31.1 mph N/A   Overcast
7:53 AM 39.0 °F 29.0 °F 32.0 °F 76% 29.92 in 7.0 mi West 20.7 mph 31.1 mph N/A   Mostly Cloudy
8:53 AM 41.0 °F 31.6 °F 30.0 °F 65% 29.93 in 8.0 mi West 20.7 mph - N/A   Mostly Cloudy
9:06 AM 37.4 °F 25.9 °F 33.8 °F 87% 29.92 in 2.0 mi West 25.3 mph 35.7 mph 0.01 in Rain Light Rain
9:10 AM 39.2 °F 28.7 °F 32.0 °F 75% 29.92 in 4.0 mi West 23.0 mph - 0.01 in Rain Light Rain
9:53 AM 39.0 °F 30.3 °F 32.0 °F 76% 29.94 in 6.0 mi WNW 16.1 mph 32.2 mph 0.01 in Rain Light Rain
10:53 AM 39.0 °F 29.6 °F 28.9 °F 67% 29.96 in 10.0 mi NNW 18.4 mph - 0.00 in   Partly Cloudy
11:53 AM 39.0 °F 30.6 °F 30.9 °F 73% 29.99 in 10.0 mi NNW 15.0 mph - N/A   Clear
12:53 PM 39.9 °F 34.5 °F 30.0 °F 68% 30.01 in 10.0 mi NW 8.1 mph - N/A   Clear
1:53 PM 41.0 °F 37.1 °F 30.0 °F 65% 30.06 in 10.0 mi NNW 5.8 mph - N/A   Clear
2:53 PM 44.1 °F 42.5 °F 30.9 °F 60% 30.07 in 10.0 mi West 3.5 mph - N/A   Clear
3:53 PM 45.0 °F 40.6 °F 30.0 °F 56% 30.07 in 9.0 mi West 8.1 mph - N/A   Clear
4:53 PM 44.1 °F 39.5 °F 28.9 °F 55% 30.07 in 9.0 mi WSW 8.1 mph - N/A   Clear
5:53 PM 44.1 °F 40.8 °F 30.0 °F 58% 30.09 in 9.0 mi West 5.8 mph - N/A   Clear
6:53 PM 44.1 °F 40.1 °F 28.9 °F 55% 30.10 in 10.0 mi WSW 6.9 mph - N/A   Clear
7:53 PM 44.1 °F 41.5 °F 30.0 °F 58% 30.09 in 9.0 mi West 4.6 mph - N/A   Clear
8:53 PM 42.1 °F 39.2 °F 28.0 °F 58% 30.05 in 9.0 mi SW 4.6 mph - N/A   Clear
9:53 PM 42.1 °F 38.4 °F 26.1 °F 53% 30.03 in 9.0 mi WSW 5.8 mph - N/A   Clear
10:53 PM 41.0 °F - 24.1 °F 51% 30.04 in 10.0 mi Calm Calm - N/A   Clear
11:53 PM 41.0 °F - 25.0 °F 53% 30.04 in 10.0 mi Calm Calm - N/A   Clear